Location: Seattle
(47.6064°N, 122.3308°W)
Time: 00:49:44
(UTC-08:00)

Tiros 1 - Pass Details

Date: 01 December 2020
Orbit: 630 x 663 km, 48.4° (Epoch: 28 January)

Event Time Altitude Azimuth Distance (km) Brightness Sun altitude
Rises 14:26:54 0° 225° (SW) 2,984 12.4 12.9°
Reaches altitude 10° 14:29:21 10° 218° (SW) 2,075 13.4 12.6°
Maximum altitude 14:33:49 40° 149° (SSE) 981 8.5 12.2°
Drops below altitude 10° 14:38:17 10° 81° (E) 2,078 9.4 11.7°
Sets 14:40:44 0° 74° (ENE) 2,989 10.1 11.5°
